Pellston, MI

8:12 AM EDT on July 28, 2017 (GMT -0400)
Pellston Regional Airport Of Emmet County

Weather History for KPLN - May, 2014

Change the Weather History Date:

Monday, May 26, 2014

  Actual Average Record
Temperature  
Mean Temperature 62 °F -  
Max Temperature 79 °F 67 °F 86 °F (1965)
Min Temperature 46 °F 42 °F 20 °F (1969)
Degree Days  
Heating Degree Days 4    
Growing Degree Days 12 (Base 50)    
Moisture  
Dew Point 52 °F    
Average Humidity 58    
Maximum Humidity 87    
Minimum Humidity 38    
Precipitation  
Precipitation 0.00 in - - ()
Sea Level Pressure  
Sea Level Pressure 29.93 in    
Wind  
Wind Speed 6 mph (West)    
Max Wind Speed 17 mph    
Max Gust Speed 28 mph    
Visibility 10 miles    
Events      
Averages and records for this station are not official NWS values.
T = Trace of Precipitation, MM = Missing Value Source: NWS Daily Summary

Daily Weather History Graph

Daily Weather History Graph

Search for Another Location

Airport or City:

Trip Planner

Search our weather history database for the weather conditions in past years. The results will help you decide how hot, cold, wet, or windy it might be!

Date:

Astronomy

May. 26, 2014 Rise Set
Actual Time 5:57 AM EDT 9:15 PM EDT
Civil Twilight 5:21 AM EDT 9:51 PM EDT
Nautical Twilight 4:34 AM EDT 10:39 PM EDT
Astronomical Twilight 3:35 AM EDT 11:38 PM EDT
Moon 4:47 AM EDT (5/26) 7:10 PM EDT (5/26)
Length of Visible Light 16h 30m
Length of Day
15h 17m
Waning Crescent, 5% of the Moon is Illuminated
May 26
Waning Crescent
May 28
New
Jun 5
First Quarter
Jun 13
Full
Jun 19
Last Quarter

Hourly Weather History & Observations

Time (EDT) Temp. Dew Point Humidity Pressure Visibility Wind Dir Wind Speed Gust Speed Precip Events Conditions
12:54 AM 48.0 °F 37.9 °F 68% 30.01 in 10.0 mi Calm Calm - N/A   Clear
1:54 AM 46.9 °F 37.9 °F 71% 30.00 in 10.0 mi Calm Calm - N/A   Clear
2:54 AM 63.0 °F 39.0 °F 41% 29.98 in 10.0 mi WSW 8.1 mph - N/A   Clear
3:54 AM 63.0 °F 39.0 °F 41% 29.97 in 10.0 mi West 3.5 mph - N/A   Clear
4:54 AM 52.0 °F 42.1 °F 69% 29.97 in 10.0 mi Calm Calm - N/A   Clear
5:54 AM 59.0 °F 42.1 °F 53% 29.97 in 10.0 mi West 5.8 mph - N/A   Clear
6:54 AM 64.9 °F 44.1 °F 47% 29.97 in 10.0 mi West 6.9 mph - N/A   Clear
7:54 AM 68.0 °F 45.0 °F 43% 29.97 in 10.0 mi West 8.1 mph - N/A   Clear
8:54 AM 72.0 °F 46.9 °F 41% 29.97 in 10.0 mi West 11.5 mph - N/A   Clear
9:54 AM 75.9 °F 48.9 °F 38% 29.95 in 10.0 mi West 8.1 mph - N/A   Clear
10:54 AM 75.0 °F 50.0 °F 41% 29.95 in 10.0 mi West 11.5 mph - N/A   Overcast
11:54 AM 73.9 °F 51.1 °F 45% 29.96 in 10.0 mi WSW 11.5 mph - N/A   Overcast
12:54 PM 73.9 °F 55.9 °F 53% 29.95 in 10.0 mi WSW 11.5 mph - N/A   Overcast
1:54 PM 72.0 °F 55.9 °F 57% 29.95 in 10.0 mi SW 9.2 mph 20.7 mph N/A   Overcast
2:54 PM 77.0 °F 59.0 °F 54% 29.91 in 10.0 mi SW 17.3 mph 23.0 mph N/A   Mostly Cloudy
3:54 PM 77.0 °F 62.1 °F 60% 29.90 in 10.0 mi West 15.0 mph 27.6 mph N/A   Clear
4:54 PM 77.0 °F 63.0 °F 62% 29.88 in 10.0 mi WSW 12.7 mph 24.2 mph N/A   Clear
5:54 PM 77.0 °F 62.1 °F 60% 29.88 in 10.0 mi West 15.0 mph 21.9 mph N/A   Clear
6:54 PM 73.9 °F 61.0 °F 64% 29.88 in 10.0 mi WSW 8.1 mph - N/A   Clear
7:54 PM 72.0 °F 62.1 °F 71% 29.88 in 10.0 mi West 8.1 mph - N/A   Clear
8:54 PM 69.1 °F 61.0 °F 75% 29.88 in 10.0 mi WNW 8.1 mph - N/A   Clear
9:54 PM 68.0 °F 61.0 °F 78% 29.89 in 10.0 mi West 5.8 mph - N/A   Overcast
10:54 PM 64.9 °F 60.1 °F 84% 29.88 in 10.0 mi WNW 3.5 mph - N/A   Partly Cloudy
11:54 PM 63.0 °F 59.0 °F 87% 29.88 in 10.0 mi NW 4.6 mph - N/A   Clear